This is the latest recevied weather packets stored in our database for station/object F4IEI-10. If no packets are shown the sender has not sent any weather packets the latest 10 day(s).
| Time | Temp. | Humidity | Pressure | Rain* | Wind** | Luminosity | Snow |
|---|---|---|---|---|---|---|---|
| 1777750115 | 17.78° C | 63% | 1013.6 hPa | - | - | - | - |
| 1777749215 | 18.33° C | 65% | 1013.4 hPa | - | - | - | - |
| 1777748315 | 18.89° C | 64% | 1013.2 hPa | - | - | - | - |
| 1777747415 | 20° C | 64% | 1013.3 hPa | - | - | - | - |
| 1777746515 | 20° C | 64% | 1013.2 hPa | - | - | - | - |
| 1777745615 | 20° C | 65% | 1013.4 hPa | - | - | - | - |
| 1777744715 | 20° C | 64% | 1013.4 hPa | - | - | - | - |
| 1777743815 | 20° C | 62% | 1013.3 hPa | - | - | - | - |
| 1777742915 | 20.56° C | 60% | 1013.4 hPa | - | - | - | - |
| 1777742015 | 20.56° C | 59% | 1013.5 hPa | - | - | - | - |
| 1777741115 | 21.11° C | 58% | 1013.4 hPa | - | - | - | - |
| 1777740215 | 21.67° C | 57% | 1013.4 hPa | - | - | - | - |
| 1777739316 | 22.78° C | 56% | 1013.5 hPa | - | - | - | - |
| 1777738416 | 23.89° C | 55% | 1013.5 hPa | - | - | - | - |
| 1777737515 | 24.44° C | 58% | 1013.5 hPa | - | - | - | - |
| 1777736616 | 23.89° C | 60% | 1013.6 hPa | - | - | - | - |
| 1777735716 | 23.89° C | 61% | 1013.8 hPa | - | - | - | - |
| 1777734816 | 25° C | 60% | 1013.8 hPa | - | - | - | - |
| 1777733916 | 25° C | 67% | 1014 hPa | - | - | - | - |
| 1777733015 | 25° C | 71% | 1014.3 hPa | - | - | - | - |
| 1777732116 | 22.78° C | 70% | 1014.4 hPa | - | - | - | - |
| 1777731216 | 23.33° C | 65% | 1014.5 hPa | - | - | - | - |
| 1777730316 | 23.89° C | 67% | 1014.9 hPa | - | - | - | - |
| 1777729416 | 23.89° C | 66% | 1015 hPa | - | - | - | - |
| 1777728516 | 24.44° C | 69% | 1015.1 hPa | - | - | - | - |
* Rain since midnight (hover to see other rain measurements)
** Current wind speed in m/s (hover to see current wind gust speed)